Location: Chuathbaluk
(61.5726°N, 159.2454°W)
Time: 17:39:16
(UTC+00:00)

NOAA 15 - Pass Details

Date: 20 January 2021
Orbit: 798 x 812 km, 98.7° (Epoch: 05 March)

Event Time Altitude Azimuth Distance (km) Brightness Sun altitude
Rises 16:30:43 0° 23° (NNE) 3,342 8.0 -19.5°
Reaches altitude 10° 16:34:29 10° 50° (NE) 2,408 7.6 -19.1°
Maximum altitude 16:36:58 13° 78° (ENE) 2,183 7.9 -18.8°
Drops below altitude 10° 16:39:26 10° 106° (ESE) 2,403 8.3 -18.5°
Sets 16:43:10 0° 133° (SE) 3,331 8.7 -18.1°
